• In Uzbekistan
  • List of Countries
  • For 7 days
  • Water Temperature
  • Satellite Maps
  • Weather Map
  • Weather Widgets
  • user-avatar
    Login

    Hourly Weather Czerlonka

    Today, 19 July, Thursday

    Time Temperature Precipitation Wind Pressure Humidity
    00:00 +20°C° 0 mm 2 mps 739 mmHg 95%
    01:00 +20°C° 0 mm 2 mps 739 mmHg 96%
    02:00 +20°C° 0 mm 1 mps 739 mmHg 95%
    03:00 +19°C° 0 mm 2 mps 739 mmHg 96%
    04:00 +19°C° 0 mm 2 mps 739 mmHg 96%
    05:00 +18°C° 0 mm 2 mps 739 mmHg 96%
    06:00 +20°C° 0 mm 2 mps 740 mmHg 93%
    07:00 +21°C° 0 mm 3 mps 740 mmHg 89%
    08:00 +22°C° 0 mm 3 mps 740 mmHg 86%
    09:00 +25°C° 0 mm 3 mps 740 mmHg 78%
    10:00 +26°C° 0 mm 4 mps 740 mmHg 70%
    11:00 +27°C° 0 mm 4 mps 740 mmHg 62%
    12:00 +28°C° 0 mm 4 mps 740 mmHg 60%
    13:00 +28°C° 0 mm 4 mps 740 mmHg 58%
    14:00 +29°C° 0 mm 4 mps 740 mmHg 55%
    15:00 +29°C° 0.2 mm 4 mps 740 mmHg 58%
    16:00 +28°C° 0.2 mm 4 mps 740 mmHg 60%
    17:00 +28°C° 0.2 mm 5 mps 740 mmHg 63%
    18:00 +26°C° 0.1 mm 4 mps 740 mmHg 68%
    19:00 +25°C° 0.1 mm 4 mps 740 mmHg 73%
    20:00 +24°C° 0.1 mm 3 mps 739 mmHg 78%
    21:00 +22°C° 0 mm 3 mps 740 mmHg 81%
    22:00 +21°C° 0 mm 3 mps 740 mmHg 83%
    23:00 +20°C° 0 mm 3 mps 740 mmHg 86%

    Tomorrow, 20 July, Friday

    Time Temperature Precipitation Wind Pressure Humidity
    00:00 +19°C° 0 mm 3 mps 740 mmHg 89%
    01:00 +19°C° 0 mm 3 mps 740 mmHg 91%
    02:00 +18°C° 0 mm 3 mps 740 mmHg 94%
    03:00 +18°C° 0 mm 3 mps 740 mmHg 95%
    04:00 +18°C° 0 mm 4 mps 740 mmHg 95%
    05:00 +18°C° 0 mm 4 mps 740 mmHg 96%
    06:00 +19°C° 0.1 mm 4 mps 740 mmHg 93%
    07:00 +20°C° 0.1 mm 4 mps 740 mmHg 90%
    08:00 +21°C° 0.1 mm 4 mps 741 mmHg 87%
    09:00 +22°C° 0.5 mm 4 mps 741 mmHg 84%
    10:00 +23°C° 0.5 mm 4 mps 741 mmHg 80%
    11:00 +25°C° 0.5 mm 4 mps 741 mmHg 77%
    12:00 +26°C° 1 mm 5 mps 740 mmHg 75%
    13:00 +26°C° 1 mm 5 mps 740 mmHg 73%
    14:00 +27°C° 1 mm 5 mps 740 mmHg 72%
    15:00 +26°C° 1.2 mm 5 mps 740 mmHg 74%
    16:00 +26°C° 1.2 mm 5 mps 740 mmHg 76%
    17:00 +26°C° 1.2 mm 5 mps 740 mmHg 78%
    18:00 +25°C° 0.5 mm 5 mps 740 mmHg 81%
    19:00 +23°C° 0.5 mm 4 mps 740 mmHg 84%
    20:00 +22°C° 0.5 mm 4 mps 740 mmHg 87%
    21:00 +21°C° 1.1 mm 4 mps 741 mmHg 89%
    22:00 +20°C° 1.1 mm 4 mps 741 mmHg 91%
    23:00 +20°C° 1.1 mm 4 mps 741 mmHg 92%

    Day after tomorrow, 21 July, Saturday

    Time Temperature Precipitation Wind Pressure Humidity
    00:00 +19°C° 0.2 mm 4 mps 741 mmHg 94%
    01:00 +19°C° 0.2 mm 4 mps 741 mmHg 95%
    02:00 +18°C° 0.2 mm 4 mps 741 mmHg 96%
    03:00 +18°C° 0 mm 4 mps 741 mmHg 95%
    04:00 +17°C° 0 mm 4 mps 742 mmHg 95%
    05:00 +17°C° 0 mm 4 mps 742 mmHg 95%
    06:00 +17°C° 0 mm 4 mps 742 mmHg 92%
    07:00 +18°C° 0 mm 4 mps 742 mmHg 90%
    08:00 +19°C° 0 mm 4 mps 742 mmHg 87%
    09:00 +20°C° 0 mm 4 mps 742 mmHg 80%
    10:00 +22°C° 0 mm 4 mps 742 mmHg 73%
    11:00 +25°C° 0 mm 4 mps 742 mmHg 66%
    12:00 +25°C° 0 mm 4 mps 742 mmHg 63%
    13:00 +26°C° 0 mm 4 mps 742 mmHg 61%
    14:00 +27°C° 0 mm 5 mps 742 mmHg 58%
    15:00 +27°C° 0 mm 4 mps 742 mmHg 58%
    16:00 +27°C° 0 mm 4 mps 742 mmHg 59%
    17:00 +26°C° 0 mm 4 mps 742 mmHg 59%
    18:00 +25°C° 0 mm 3 mps 742 mmHg 65%
    19:00 +24°C° 0 mm 3 mps 742 mmHg 71%
    20:00 +21°C° 0 mm 2 mps 742 mmHg 76%
    21:00 +20°C° 0 mm 2 mps 742 mmHg 79%
    22:00 +19°C° 0 mm 2 mps 742 mmHg 82%
    23:00 +18°C° 0 mm 2 mps 742 mmHg 85%

    22 July, Sunday

    Time Temperature Precipitation Wind Pressure Humidity
    00:00 +18°C° 0 mm 2 mps 742 mmHg 87%
    01:00 +17°C° 0 mm 2 mps 742 mmHg 90%
    02:00 +17°C° 0 mm 2 mps 742 mmHg 92%
    03:00 +17°C° 0 mm 2 mps 742 mmHg 93%
    04:00 +16°C° 0 mm 2 mps 742 mmHg 94%
    05:00 +16°C° 0 mm 2 mps 742 mmHg 95%
    06:00 +17°C° 0 mm 2 mps 742 mmHg 90%
    07:00 +19°C° 0 mm 2 mps 742 mmHg 85%
    08:00 +20°C° 0 mm 3 mps 742 mmHg 79%
    09:00 +22°C° 0 mm 3 mps 742 mmHg 74%
    10:00 +24°C° 0 mm 3 mps 742 mmHg 69%
    11:00 +26°C° 0 mm 3 mps 742 mmHg 63%
    12:00 +26°C° 0.1 mm 3 mps 742 mmHg 61%
    13:00 +27°C° 0.1 mm 3 mps 741 mmHg 59%
    14:00 +27°C° 0.1 mm 3 mps 741 mmHg 57%
    15:00 +27°C° 0.1 mm 3 mps 741 mmHg 58%
    16:00 +27°C° 0.1 mm 3 mps 741 mmHg 60%
    17:00 +27°C° 0.1 mm 3 mps 741 mmHg 62%
    18:00 +26°C° 0.2 mm 3 mps 741 mmHg 68%
    19:00 +24°C° 0.2 mm 2 mps 741 mmHg 75%
    20:00 +23°C° 0.2 mm 2 mps 741 mmHg 81%
    21:00 +21°C° 0 mm 2 mps 741 mmHg 84%
    22:00 +20°C° 0 mm 2 mps 741 mmHg 87%
    23:00 +19°C° 0 mm 2 mps 742 mmHg 90%

    23 July, Monday

    Time Temperature Precipitation Wind Pressure Humidity
    00:00 +18°C° 0 mm 2 mps 742 mmHg 91%
    01:00 +18°C° 0 mm 2 mps 741 mmHg 92%
    02:00 +17°C° 0 mm 2 mps 741 mmHg 93%
    03:00 +17°C° 0 mm 2 mps 742 mmHg 94%
    04:00 +16°C° 0 mm 2 mps 742 mmHg 94%
    05:00 +16°C° 0 mm 2 mps 742 mmHg 94%
    06:00 +17°C° 0 mm 2 mps 742 mmHg 89%
    07:00 +19°C° 0 mm 3 mps 742 mmHg 84%
    08:00 +20°C° 0 mm 3 mps 742 mmHg 79%
    09:00 +22°C° 0 mm 3 mps 742 mmHg 72%
    10:00 +24°C° 0 mm 3 mps 742 mmHg 66%
    11:00 +26°C° 0 mm 4 mps 742 mmHg 59%
    12:00 +26°C° 0 mm 4 mps 742 mmHg 57%
    13:00 +27°C° 0 mm 4 mps 742 mmHg 54%
    14:00 +27°C° 0 mm 4 mps 742 mmHg 52%
    15:00 +27°C° 0 mm 4 mps 742 mmHg 54%
    16:00 +27°C° 0 mm 4 mps 742 mmHg 55%
    17:00 +27°C° 0 mm 4 mps 742 mmHg 57%
    18:00 +25°C° 0 mm 4 mps 742 mmHg 64%
    19:00 +24°C° 0 mm 3 mps 742 mmHg 71%
    20:00 +21°C° 0 mm 3 mps 742 mmHg 78%
    21:00 +20°C° 0 mm 3 mps 743 mmHg 82%
    22:00 +19°C° 0 mm 3 mps 743 mmHg 85%
    23:00 +18°C° 0 mm 3 mps 743 mmHg 89%

    24 July, Tuesday

    Time Temperature Precipitation Wind Pressure Humidity
    00:00 +18°C° 0 mm 3 mps 743 mmHg 90%
    01:00 +17°C° 0 mm 3 mps 743 mmHg 91%
    02:00 +16°C° 0 mm 3 mps 743 mmHg 92%
    03:00 +16°C° 0 mm 3 mps 743 mmHg 93%
    04:00 +14°C° 0 mm 3 mps 743 mmHg 94%
    05:00 +14°C° 0 mm 2 mps 744 mmHg 95%
    06:00 +16°C° 0 mm 3 mps 744 mmHg 90%
    07:00 +17°C° 0 mm 3 mps 744 mmHg 84%
    08:00 +18°C° 0 mm 3 mps 744 mmHg 79%
    09:00 +20°C° 0 mm 3 mps 744 mmHg 74%
    10:00 +21°C° 0 mm 3 mps 744 mmHg 68%
    11:00 +24°C° 0 mm 3 mps 744 mmHg 63%
    12:00 +24°C° 0 mm 3 mps 744 mmHg 59%
    13:00 +25°C° 0 mm 3 mps 744 mmHg 56%
    14:00 +26°C° 0 mm 3 mps 744 mmHg 52%
    15:00 +26°C° 0 mm 3 mps 744 mmHg 53%
    16:00 +26°C° 0 mm 3 mps 743 mmHg 53%
    17:00 +27°C° 0 mm 3 mps 743 mmHg 53%
    18:00 +25°C° 0 mm 2 mps 743 mmHg 59%
    19:00 +24°C° 0 mm 2 mps 743 mmHg 65%
    20:00 +22°C° 0 mm 1 mps 743 mmHg 71%
    21:00 +21°C° 0 mm 1 mps 744 mmHg 73%
    22:00 +20°C° 0 mm 1 mps 744 mmHg 76%
    23:00 +19°C° 0 mm 1 mps 744 mmHg 79%
    Show more